Theta_e
325 327 328 329 328 327 325 325 327 328 328 328 327 328 331 333 333 329 327 322 317 320 322 320 321 320 320 320 317 318 320 318 317 316 315 315 316 317 318 319 319 320 319 318 319 320 319 318 317 317 317 317 318 318 319 320 319 319 319 319 318 318 318 319 320 321 322 322 322 321 320 319 318 317 317 316 316 315 315 315 316 317 317 317 318 318
325 327 327 326 326 325 325 325 327 329 329 327 327 329 329 332 333 327 324 322 317 319 324 322 320 320 318 318 316 316 316 316 317 317 316 316 315 316 317 318 319 319 318 318 320 320 320 320 318 317 317 317 317 317 318 318 318 318 319 318 317 318 317 316 316 317 318 319 319 319 319 318 318 317 317 317 316 316 316 316 316 316 317 317 317 318
326 327 326 325 325 324 324 326 327 328 327 327 327 328 330 331 328 322 319 319 317 320 328 325 321 320 318 318 316 314 315 316 317 317 318 318 316 316 317 317 318 319 319 319 319 320 320 319 318 318 318 317 316 316 317 316 317 318 318 317 317 317 317 316 315 315 315 316 317 318 318 318 319 319 318 318 318 318 317 317 317 317 317 317 317 318
327 326 325 324 324 324 325 325 327 328 327 328 327 328 332 329 327 327 319 315 317 320 323 321 319 318 317 318 317 315 315 316 318 319 319 319 318 317 317 317 317 318 319 319 319 319 319 319 319 319 318 316 317 317 317 316 316 316 316 315 315 315 316 315 315 314 314 315 317 318 319 320 321 321 321 321 320 319 319 319 319 318 318 318 318 318
326 325 324 323 324 324 325 326 328 330 330 329 328 329 332 328 328 329 320 317 318 319 320 318 321 325 324 322 320 317 316 315 316 318 318 318 319 319 318 318 318 318 318 318 319 319 319 320 319 318 317 316 316 316 315 315 314 314 314 314 314 314 314 315 314 314 315 316 317 318 320 321 321 321 321 321 320 319 319 319 318 318 319 319 319 319
325 324 323 324 325 324 326 327 327 330 330 329 329 330 333 330 326 322 320 322 323 324 324 319 326 338 335 329 326 322 319 317 315 314 316 318 319 318 317 317 318 318 318 318 318 319 319 320 319 318 317 316 316 315 314 314 313 314 314 313 314 314 313 314 314 314 315 316 317 317 318 318 318 317 317 317 316 316 317 317 317 318 318 319 319 319
324 323 323 324 325 325 327 327 327 328 328 329 331 331 331 329 323 320 321 327 330 328 324 319 327 337 332 327 326 324 322 321 317 314 314 316 317 318 318 319 319 318 318 318 318 319 319 319 319 317 317 316 315 315 314 314 314 313 313 313 314 313 313 314 314 314 315 316 316 316 316 315 314 314 313 313 313 314 315 315 316 317 318 318 318 319
324 323 325 324 325 326 326 327 327 326 327 331 332 329 328 325 323 321 322 331 333 327 325 324 325 328 327 325 323 322 323 322 320 318 315 315 316 317 318 320 321 320 319 319 318 319 319 318 318 317 316 316 315 316 315 314 315 314 313 313 313 313 314 314 314 315 315 315 314 314 314 314 314 313 313 313 313 314 314 315 316 316 316 317 317 318
323 324 325 324 325 325 325 328 326 325 328 330 328 326 328 326 324 322 324 331 329 326 330 326 321 326 331 330 327 324 324 324 323 323 320 316 317 318 319 319 320 321 320 319 319 319 319 318 318 317 317 316 316 316 315 315 315 315 314 314 314 314 314 314 314 315 314 314 314 314 315 314 314 313 313 314 314 314 314 315 315 315 315 316 316 316
323 324 323 324 325 325 327 329 326 326 328 325 324 325 326 326 324 324 328 331 328 329 332 326 324 332 333 332 330 326 326 325 323 324 321 317 318 319 319 319 319 319 320 320 319 318 318 318 318 318 317 317 317 316 316 316 315 315 315 314 314 314 313 314 314 314 314 315 315 315 315 314 314 314 314 314 314 314 314 315 315 315 315 315 315 315
322 322 322 324 324 324 327 327 324 326 325 322 325 326 325 327 328 329 331 332 330 331 331 326 328 334 333 333 331 326 326 325 322 323 322 318 318 319 319 320 319 319 319 319 319 318 318 317 317 317 317 317 317 316 316 316 316 316 316 315 315 314 314 314 314 314 314 315 315 315 315 315 315 315 315 315 315 315 315 315 314 315 315 315 315 316
323 324 323 323 323 322 325 325 322 323 322 324 330 328 327 330 330 331 331 330 331 332 329 324 326 330 331 333 332 327 325 323 320 323 324 319 316 318 319 319 320 320 320 320 320 319 318 318 317 317 317 317 317 317 317 316 317 316 316 316 315 315 314 314 314 314 314 315 315 315 315 315 315 315 315 315 315 315 315 315 316 316 316 316 316 316
325 325 323 322 322 322 326 326 324 323 322 326 329 328 331 331 330 332 330 329 331 329 324 322 324 327 329 327 327 325 322 321 318 317 319 318 316 319 320 319 319 319 320 320 320 320 320 320 319 318 317 317 317 317 317 317 317 317 317 317 316 315 315 314 314 314 314 315 315 315 315 315 315 315 316 316 316 316 316 317 317 317 317 317 317 318
326 324 323 324 323 322 324 326 326 325 324 325 325 328 332 330 331 334 331 330 332 327 321 320 323 327 328 326 324 323 321 321 319 317 318 317 317 320 320 319 319 319 319 319 320 320 320 320 320 319 318 317 317 318 317 317 317 317 317 317 316 316 315 315 315 314 314 315 315 315 315 315 316 316 316 316 316 317 317 318 318 318 319 319 319 319
328 326 324 325 324 324 324 325 327 326 324 324 325 329 331 330 333 334 331 331 330 325 319 318 324 329 330 330 325 318 317 318 318 318 318 316 315 317 318 319 319 319 319 319 319 320 320 320 321 320 319 318 318 318 318 317 318 317 317 317 317 316 316 316 315 315 315 315 315 315 315 316 316 316 317 317 318 318 319 319 319 319 320 320 320 320
328 328 324 322 322 323 324 322 323 325 326 325 327 331 331 330 333 330 328 328 326 324 321 320 325 327 326 326 320 315 316 316 314 315 315 316 315 315 317 318 318 319 319 319 319 319 319 319 319 319 319 319 318 318 318 318 317 317 317 317 316 316 316 316 316 316 315 315 315 315 315 316 316 317 318 318 318 318 319 320 320 320 320 321 321 323
326 326 323 321 321 322 323 321 321 324 327 326 327 329 327 327 332 330 323 321 323 327 324 321 324 326 325 323 320 320 321 317 315 313 312 315 316 316 317 317 317 318 319 319 319 319 319 318 318 318 318 318 318 318 318 318 318 317 317 316 316 316 316 316 316 316 315 315 315 315 315 315 316 316 316 316 316 317 319 320 321 321 322 323 324 324
325 324 322 322 323 321 319 321 321 321 324 326 327 326 324 324 330 332 327 323 324 327 326 322 322 325 326 326 327 327 324 323 323 318 312 312 314 316 317 317 317 318 318 318 318 317 318 318 318 318 318 317 317 317 317 317 317 317 317 316 316 316 316 316 315 315 314 314 314 313 313 313 313 313 313 313 314 317 319 320 322 322 322 324 324 324
324 324 320 320 323 320 318 321 323 320 319 323 324 323 326 329 328 330 330 327 325 327 329 325 321 323 324 325 329 326 323 328 329 323 318 314 312 314 317 317 316 316 317 317 317 317 317 317 317 317 316 316 316 315 315 315 315 315 316 315 315 315 315 314 314 313 313 312 312 311 311 311 311 311 311 312 314 316 319 320 321 321 321 323 324 323
321 325 323 319 320 321 321 323 325 323 319 320 322 322 326 328 326 328 329 328 326 326 328 326 322 325 324 321 323 321 320 324 322 323 325 317 313 315 317 316 316 316 317 316 316 317 316 316 317 316 315 315 314 314 313 313 313 313 313 313 313 313 313 312 312 312 311 311 311 311 311 311 311 311 311 311 313 315 316 317 317 317 318 319 319 318
320 323 324 319 317 321 324 323 324 324 321 321 324 324 324 324 324 328 328 327 329 328 329 328 326 331 329 321 320 320 319 320 321 323 323 316 315 319 317 316 316 316 316 316 316 316 315 315 316 316 316 315 314 314 313 313 313 313 313 313 313 312 312 312 311 311 311 311 311 311 311 311 311 311 311 311 311 312 312 313 313 312 312 312 312 312
322 323 322 320 320 322 324 321 321 323 323 323 324 324 324 322 323 327 327 326 328 327 328 329 328 332 331 321 318 319 320 319 318 319 317 315 317 320 317 316 315 314 314 315 314 314 315 315 315 315 315 314 314 313 313 313 313 313 313 313 312 312 312 312 311 311 311 311 311 311 312 311 311 311 311 311 311 311 311 311 311 311 311 311 311 311
322 323 321 320 321 320 320 317 316 320 323 324 324 324 324 321 322 326 326 326 326 324 324 325 325 332 335 326 320 318 316 314 313 313 313 316 318 319 317 315 314 314 314 313 313 314 314 314 313 313 313 312 312 312 312 312 312 311 311 311 311 311 311 311 311 311 311 311 311 312 312 312 311 311 311 311 311 311 311 311 311 310 311 311 311 311
320 322 320 319 318 316 318 318 317 319 321 323 324 325 324 321 321 324 324 324 326 324 323 324 325 332 339 331 318 310 309 309 310 312 313 316 319 318 317 316 315 315 314 313 313 313 313 314 313 313 312 312 311 311 311 311 311 311 311 311 311 311 310 311 311 311 311 311 312 311 311 311 310 311 310 310 311 310 310 311 310 311 311 311 311 311
321 321 319 320 320 319 321 322 321 320 321 322 322 322 323 322 322 323 322 322 325 324 324 324 325 331 338 332 317 311 312 312 310 311 313 315 317 318 317 317 316 316 316 314 313 313 314 314 314 314 313 312 311 311 311 311 311 311 311 311 311 311 311 311 311 311 311 311 311 310 310 310 310 310 310 310 310 311 310 311 311 311 311 311 311 311
322 320 319 322 323 323 325 324 323 321 320 322 322 321 322 322 322 322 321 321 323 323 323 324 325 329 333 328 320 319 320 316 311 311 313 314 316 318 318 318 318 317 316 315 315 315 315 314 314 313 312 311 311 311 311 311 311 311 311 311 311 311 311 311 311 311 310 310 310 310 310 310 310 310 311 310 310 310 310 311 311 311 311 311 311 311
321 318 318 321 321 323 325 324 322 321 321 322 322 321 322 322 321 321 321 322 322 321 322 323 322 324 325 323 323 323 321 318 313 310 311 314 316 317 317 317 317 317 316 316 315 315 315 314 313 312 311 311 311 311 311 311 311 311 311 311 311 311 311 311 310 310 310 310 310 310 310 310 310 310 310 310 310 310 310 310 311 310 310 310 310 311
321 318 318 320 319 320 322 321 320 320 321 321 322 321 321 321 322 322 322 322 322 321 322 321 321 322 323 323 326 324 321 319 315 310 310 314 315 315 316 315 315 315 314 314 314 313 314 313 312 311 311 311 311 311 311 311 311 311 311 311 311 310 310 310 310 310 310 310 310 310 310 310 310 310 310 310 310 310 311 310 310 310 310 310 310 310
319 318 318 319 319 320 321 321 320 320 320 320 321 321 321 321 322 322 322 322 323 323 322 321 321 321 320 322 325 322 318 316 315 314 313 313 313 313 313 313 313 313 313 312 312 312 313 313 312 311 311 311 311 311 310 311 311 310 311 311 311 310 311 310 310 310 310 311 310 310 310 310 310 310 310 311 311 311 311 310 310 310 310 310 310 310
319 319 318 318 319 320 321 321 320 320 320 320 320 320 320 320 321 322 322 321 321 322 322 321 322 321 318 319 320 319 316 314 314 314 313 313 314 314 313 313 313 313 313 313 313 313 312 312 311 311 311 311 311 310 310 311 311 311 311 311 311 311 311 310 311 311 311 311 310 310 310 310 310 311 311 311 311 311 311 310 310 310 310 310 310 310
320 320 318 317 319 319 319 320 321 320 320 320 320 320 320 320 320 320 321 322 322 322 322 321 322 321 319 317 317 316 317 317 315 314 313 315 316 316 314 314 314 314 314 315 315 314 313 312 311 310 310 310 310 311 311 311 311 311 311 311 311 311 311 311 311 311 311 310 310 310 310 310 310 311 311 311 311 311 311 311 311 310 310 310 310 310
320 320 318 318 319 318 317 319 320 320 320 320 320 320 320 320 320 320 320 321 321 322 322 322 322 321 319 318 317 316 315 316 315 315 316 316 317 317 316 315 316 316 317 317 316 314 313 311 311 311 310 311 311 311 311 311 311 312 312 312 312 311 312 312 311 311 311 311 310 310 310 310 311 311 311 311 311 311 311 311 311 310 310 310 310 310
320 320 317 317 319 319 317 317 319 319 320 321 320 319 319 319 319 320 320 320 320 320 321 322 321 320 320 319 319 318 316 315 315 316 317 318 318 318 318 318 319 318 319 319 317 315 314 312 311 310 310 311 311 311 312 312 312 312 312 312 312 312 312 312 311 312 311 311 311 310 310 310 311 311 312 311 311 311 311 311 311 310 310 310 310 310
320 320 317 318 321 320 316 316 318 319 321 322 319 318 319 319 319 320 320 319 319 319 320 320 319 320 321 320 319 318 316 315 315 316 318 318 318 318 319 319 319 319 319 318 317 316 315 313 311 310 310 311 311 311 312 312 312 312 312 312 312 312 312 312 312 312 312 311 311 311 310 311 311 311 311 311 311 311 311 311 311 310 310 310 310 310
319 318 317 318 319 316 315 316 319 321 321 320 318 318 317 317 318 319 319 319 318 318 319 319 319 320 319 317 316 316 315 315 317 318 318 318 318 318 318 318 318 319 318 318 317 317 317 314 312 311 310 311 311 311 311 312 312 311 311 311 311 311 312 312 312 312 312 311 311 311 310 311 311 311 311 311 311 310 310 310 310 310 310 310 310 310
318 318 317 318 317 315 315 318 320 321 319 318 319 318 317 317 318 319 319 319 318 318 318 318 318 318 316 314 314 315 315 315 315 316 317 317 317 317 318 318 318 318 318 318 318 318 317 316 313 311 311 311 311 311 311 312 311 311 311 311 311 311 311 312 312 312 312 311 311 311 310 311 311 311 311 311 310 310 310 310 310 310 310 310 310 310
318 318 317 318 317 316 317 318 320 321 319 317 319 318 317 317 318 318 319 319 317 317 317 317 318 317 317 316 314 314 314 314 314 315 315 316 316 317 318 317 318 318 318 318 318 318 317 316 314 312 311 311 311 311 311 311 311 311 311 311 311 311 311 311 312 312 311 311 311 311 310 311 311 311 311 310 310 310 310 310 310 309 310 310 310 309
317 319 319 319 318 317 318 318 320 322 321 318 317 317 315 316 316 317 318 319 318 317 316 316 317 317 317 316 314 314 315 316 316 316 315 315 316 317 317 317 317 318 318 317 317 317 317 316 314 312 311 311 311 311 311 311 311 311 312 312 312 312 311 311 312 312 311 311 311 310 310 311 310 310 310 310 310 310 310 310 309 310 310 310 310 309
315 318 319 319 319 318 318 319 320 321 321 320 319 317 314 314 314 316 318 319 318 316 315 315 316 316 316 315 313 314 316 318 317 315 314 315 316 316 317 317 317 317 317 317 317 318 318 316 314 312 311 311 310 311 311 311 312 312 312 313 313 313 312 311 311 312 311 310 310 310 310 310 310 310 310 310 310 310 310 310 310 310 310 310 309 309
313 315 317 318 319 318 318 320 320 321 321 321 319 315 313 313 314 318 320 321 316 314 314 315 315 315 315 314 313 314 316 317 316 314 314 315 316 316 316 316 316 317 317 317 317 317 318 317 315 312 311 311 310 311 311 312 312 312 313 313 313 313 312 311 311 311 310 310 310 310 310 310 310 310 310 310 310 310 310 310 310 309 309 309 309 308
313 313 315 317 319 318 318 320 322 322 322 320 315 311 312 315 317 319 321 319 314 313 315 314 314 314 315 314 313 313 314 316 316 315 315 315 315 315 316 316 316 316 316 316 317 317 317 317 316 314 312 311 311 311 311 312 312 313 314 314 314 313 312 312 312 311 311 310 310 310 310 310 310 310 310 310 310 310 309 309 310 309 309 308 308 308
314 314 315 316 318 318 318 319 321 322 321 316 312 311 313 318 319 318 317 315 314 315 315 314 314 315 314 313 313 313 314 315 316 315 314 314 314 315 315 315 315 316 316 316 317 317 317 317 317 315 313 312 311 311 312 312 312 313 314 314 314 314 313 312 311 311 311 310 310 309 309 309 309 309 309 310 310 310 310 309 309 309 308 308 308 308
314 315 315 316 317 318 318 319 322 323 318 312 311 313 315 319 319 316 314 315 315 315 315 315 315 315 315 314 313 314 315 315 315 315 314 314 314 314 315 315 314 315 315 316 316 316 317 317 317 316 315 314 313 312 312 313 313 313 314 314 315 314 313 312 312 312 311 310 310 309 309 309 309 309 309 310 310 309 309 309 308 308 308 308 308 308
314 315 316 316 316 317 319 319 320 318 314 311 312 314 315 315 315 314 314 315 314 314 315 315 315 316 315 315 315 315 315 315 315 315 315 314 314 314 315 315 315 314 314 315 315 315 316 316 316 316 316 315 314 314 314 314 314 314 314 314 314 313 313 312 312 311 311 310 309 309 309 309 309 309 310 310 309 309 309 308 308 308 308 308 308 308
314 314 314 314 314 315 317 317 315 313 311 310 311 313 313 313 312 313 314 314 314 315 315 315 315 316 315 316 316 315 314 315 315 315 315 315 315 315 315 315 315 314 314 314 314 314 315 315 315 315 316 315 315 315 315 314 314 314 314 314 314 313 312 312 311 311 310 310 309 309 309 309 309 310 310 309 309 309 308 308 308 308 308 308 308 308
312 311 312 313 314 315 315 315 314 312 311 311 310 311 313 313 313 312 313 313 314 315 315 315 316 315 315 316 315 315 315 315 315 316 315 315 315 315 315 314 314 314 314 314 313 314 314 314 314 314 314 315 314 314 314 314 314 313 313 313 313 312 312 311 311 310 310 310 309 309 309 309 309 310 309 309 308 308 308 308 308 308 308 308 308 308
312 311 311 313 314 316 316 317 316 313 312 312 312 312 312 312 312 312 312 312 313 313 314 315 315 315 314 314 315 315 315 315 315 314 314 314 314 314 314 314 314 314 314 314 314 314 313 313 313 313 313 314 314 314 314 314 313 313 312 312 312 311 311 311 310 310 309 309 309 308 309 309 309 309 309 308 308 308 308 308 308 308 308 308 308 308
311 311 313 314 315 315 315 315 313 311 311 312 312 313 313 313 313 312 312 313 313 313 314 313 313 312 312 312 313 313 313 314 314 314 313 313 312 313 313 313 313 313 313 313 313 313 312 312 313 313 313 313 313 313 313 313 312 312 312 311 311 310 310 310 309 309 309 308 308 308 309 309 309 309 308 308 308 308 308 308 308 307 307 308 308 308
310 311 314 315 315 315 314 312 310 310 311 312 311 312 313 313 313 313 314 314 313 313 313 313 312 312 312 312 312 312 312 313 314 314 313 312 311 311 312 311 312 312 312 312 312 312 312 312 312 312 312 313 313 313 313 312 312 312 312 311 310 310 310 309 309 308 308 307 308 308 309 309 309 308 308 308 308 308 307 307 307 307 307 307 307 307
309 312 314 314 313 314 312 311 311 312 313 312 310 311 312 312 312 313 313 314 314 314 314 313 313 313 313 313 313 313 312 313 314 314 313 311 310 311 311 311 311 312 311 311 311 311 311 311 312 312 312 312 312 312 312 312 312 312 311 311 310 310 309 309 308 307 307 307 308 308 309 308 308 308 308 308 308 307 307 307 307 307 307 307 307 307
309 311 312 312 313 312 310 309 310 311 311 310 309 310 311 310 311 312 312 312 313 313 313 314 314 314 314 314 314 314 314 314 314 313 313 312 312 311 311 311 311 310 310 310 310 311 311 310 310 311 311 311 311 311 311 311 311 311 311 310 309 309 309 308 307 307 307 307 308 308 308 308 308 308 308 308 307 307 307 307 307 307 307 306 306 306
Wind_Speed
17 8 7 10 10 11 11 11 7 7 11 11 9 7 6 6 4 4 4 6 9 7 7 10 10 10 12 11 12 19 19 16 18 19 21 23 26 29 32 34 35 36 35 31 31 30 28 27 26 26 26 26 27 27 28 29 29 29 29 29 28 27 27 27 28 29 31 32 32 32 32 31 30 28 28 27 27 27 27 27 27 27 27 27 27 27
14 11 13 13 11 12 14 12 7 6 8 7 7 7 7 6 4 4 4 4 7 6 5 6 7 11 12 11 12 15 12 15 22 21 23 25 26 28 32 35 36 34 33 32 33 32 30 29 27 27 27 27 28 29 30 30 30 30 30 30 29 28 28 28 29 30 31 32 31 31 30 29 29 28 28 28 27 27 28 29 29 30 30 30 30 29
11 13 14 15 12 12 13 11 8 7 7 6 6 6 6 5 2 2 2 1 5 5 4 2 4 9 11 10 12 15 15 19 25 26 28 29 28 30 33 35 36 35 35 35 34 33 32 31 29 29 29 28 29 28 29 30 30 30 30 30 29 29 29 29 28 29 30 30 30 29 29 29 29 29 29 29 29 29 30 30 31 32 32 32 32 32
11 11 14 16 14 13 12 11 8 6 6 5 5 6 4 5 4 2 2 0 3 3 2 1 4 7 8 8 11 18 24 26 29 31 32 32 32 35 36 34 35 36 37 37 35 34 32 32 31 31 30 29 29 29 29 30 30 31 31 30 30 29 29 29 28 28 27 27 28 29 29 30 31 32 32 32 33 33 33 33 33 33 33 34 34 34
6 6 17 16 12 14 13 12 11 6 4 4 5 6 5 6 6 3 2 2 1 2 1 3 5 6 6 8 10 13 17 22 27 28 30 34 36 36 35 35 35 35 36 37 37 36 34 33 33 33 32 30 30 31 30 30 30 31 31 30 29 29 28 28 27 26 26 27 28 29 30 31 32 34 35 36 35 35 35 34 33 33 33 34 34 34
4 14 24 16 12 15 12 11 12 8 5 3 5 7 7 8 7 5 6 5 4 3 3 2 2 6 4 6 9 6 5 11 16 17 25 33 35 33 32 34 37 36 36 36 36 36 35 33 32 33 33 33 33 32 29 28 29 30 30 29 29 28 28 27 26 25 26 27 28 29 30 31 32 33 34 33 32 32 32 32 31 32 33 33 34 34
3 15 22 15 15 17 12 11 12 10 7 4 6 7 7 7 8 8 8 5 3 3 3 2 4 5 6 5 9 7 6 9 9 10 20 28 29 30 34 37 39 39 39 38 37 36 36 35 33 33 34 34 34 31 29 29 29 29 29 30 29 28 27 26 26 27 27 28 28 29 29 30 30 31 30 29 28 29 30 30 31 32 32 32 33 33
8 17 17 15 15 14 12 11 11 11 7 3 5 7 8 8 9 10 8 4 2 3 2 4 2 3 6 6 8 7 8 11 10 10 14 21 27 31 35 39 40 41 40 40 40 39 38 37 35 34 34 34 33 30 30 31 30 30 29 30 30 29 28 27 28 28 28 28 28 28 29 30 30 30 29 28 29 29 29 30 31 31 31 31 32 32
12 18 16 17 15 11 10 7 10 14 7 3 3 7 8 7 7 7 6 3 1 2 1 4 2 1 7 6 4 3 5 11 12 12 12 18 27 31 35 39 40 41 40 39 41 41 41 40 38 36 34 33 32 30 30 30 29 29 30 30 30 30 29 28 29 29 29 29 29 29 30 31 30 30 29 30 31 31 31 32 31 31 31 31 30 31
7 16 17 13 10 8 7 5 11 13 5 3 7 7 6 6 6 4 4 4 3 1 4 4 2 0 6 6 3 2 5 10 11 9 11 16 24 28 32 35 37 38 39 38 40 41 42 41 39 37 36 35 33 31 30 29 28 28 29 31 31 30 30 30 30 30 29 30 30 31 31 31 31 31 31 32 32 32 32 33 33 33 32 31 31 30
5 15 17 10 8 8 7 5 8 11 9 9 8 7 7 5 5 3 3 4 2 3 4 7 6 3 4 5 5 5 6 7 8 7 9 14 20 24 27 30 33 35 37 38 39 41 42 41 39 38 38 37 34 33 33 31 30 29 29 31 31 31 31 31 30 30 30 31 31 32 31 31 31 32 33 33 33 33 33 33 33 33 33 33 33 31
7 13 10 7 14 13 9 3 2 7 13 10 5 5 5 3 3 3 3 2 3 5 3 7 8 6 5 7 3 5 7 6 6 7 7 10 16 21 20 23 28 31 34 36 38 39 40 40 39 40 40 38 36 35 35 33 32 31 30 30 31 31 32 32 32 31 31 32 32 32 32 32 32 33 34 34 34 34 34 34 34 34 34 34 34 34
6 9 2 4 15 19 12 4 0 2 8 7 5 8 6 2 1 2 2 1 3 3 2 5 5 3 9 8 7 10 12 11 10 10 12 14 20 24 20 17 20 24 29 32 34 36 38 39 39 40 40 39 38 37 35 34 33 32 31 32 31 31 31 32 33 33 33 33 32 32 32 32 32 34 35 35 35 36 36 35 35 34 34 34 34 34
7 4 1 5 9 18 16 10 6 5 8 9 8 10 8 4 4 5 3 1 2 1 0 3 3 3 6 6 9 16 19 19 17 16 20 22 25 28 25 19 15 16 22 25 28 30 33 35 37 38 39 38 39 38 36 35 34 33 32 33 33 31 31 33 33 34 34 34 33 33 33 33 34 36 36 36 37 36 36 35 34 34 34 34 34 33
11 4 8 10 7 16 18 12 8 6 8 9 5 6 6 5 5 5 4 3 2 1 1 1 2 4 3 3 8 12 16 22 22 22 23 24 24 24 22 17 10 11 15 18 22 25 27 29 32 35 36 37 38 38 38 37 36 36 35 34 34 32 33 34 34 34 35 33 33 33 34 34 36 36 37 37 37 36 35 34 33 33 32 32 32 31
11 3 7 7 3 14 16 7 7 9 6 4 2 4 4 5 4 3 3 3 4 2 1 2 4 4 4 8 13 11 13 16 20 21 21 20 18 15 16 15 11 9 9 12 15 18 20 23 26 30 32 34 35 36 37 38 38 38 37 36 35 33 33 33 33 33 33 32 33 34 34 35 35 36 36 36 35 35 34 32 32 31 31 30 30 30
10 4 8 7 2 11 16 9 9 12 8 1 4 7 4 4 6 5 1 2 5 3 3 3 5 5 4 10 14 12 11 10 11 14 16 15 10 11 16 17 15 12 10 9 10 10 12 15 19 23 25 26 28 29 31 33 35 36 36 36 35 34 33 33 32 32 31 32 32 33 33 34 34 34 33 33 32 32 31 31 31 30 30 30 29 28
8 3 5 9 5 8 14 15 11 9 8 5 6 8 4 3 3 4 2 2 2 4 4 3 7 4 2 6 6 7 9 8 6 7 11 11 10 14 19 19 18 16 13 13 11 10 11 13 16 18 19 21 21 23 24 25 28 29 31 32 33 32 32 32 32 32 32 32 32 32 31 30 29 28 28 29 29 29 29 29 29 29 29 28 27 27
8 5 2 3 5 2 6 12 8 5 5 6 7 8 5 2 3 4 4 3 4 4 3 3 5 5 6 6 6 7 8 7 6 4 5 7 12 17 21 22 21 18 16 16 15 15 17 17 18 17 17 18 19 21 22 23 25 27 28 29 30 30 30 31 31 32 31 31 29 27 25 24 23 24 25 27 27 28 28 28 28 28 28 27 26 27
8 7 1 1 2 3 4 6 9 7 2 3 6 6 3 2 4 5 3 3 4 4 3 2 3 5 7 7 9 14 13 10 9 6 5 9 16 21 22 22 21 20 19 18 18 19 20 20 20 19 17 18 20 21 22 23 24 25 26 28 29 30 31 31 31 30 28 25 23 21 20 20 22 23 24 25 26 27 27 27 26 25 25 24 25 26
5 4 5 3 2 4 7 8 11 13 8 5 8 8 5 2 2 2 2 2 4 4 3 2 3 6 6 6 11 16 15 12 10 7 7 12 19 22 22 19 18 19 18 17 17 16 16 18 20 21 22 22 23 23 23 24 25 25 26 27 28 30 31 30 29 26 23 20 19 20 20 21 22 22 23 24 24 24 23 22 22 21 21 21 22 22
4 4 8 7 4 8 10 6 7 11 11 8 8 9 8 5 4 4 4 2 3 4 4 4 4 7 6 5 9 13 10 8 9 8 9 15 20 21 20 15 13 15 15 14 13 12 11 14 17 21 23 23 23 23 23 24 25 26 27 28 29 30 31 30 27 24 22 20 20 21 21 21 21 21 20 20 19 18 18 18 18 18 18 18 19 19
4 6 9 7 5 6 4 2 1 5 7 4 4 6 6 4 6 8 8 6 5 3 3 3 3 7 6 5 6 8 8 9 11 12 13 17 20 19 17 14 12 14 14 13 13 12 11 12 15 19 20 20 20 20 22 23 23 23 23 24 26 27 27 26 25 24 23 22 21 21 20 19 18 17 16 15 14 14 14 14 14 15 15 15 16 17
4 6 8 6 2 3 3 4 4 4 5 4 4 5 7 8 9 7 4 4 6 5 4 3 5 6 6 4 4 7 8 9 11 13 17 19 18 16 16 15 14 15 15 15 16 15 14 15 17 18 18 18 19 19 20 20 19 19 20 20 20 20 21 22 23 24 23 22 20 19 17 16 14 13 12 12 12 12 12 12 11 12 13 13 14 15
7 7 8 8 3 2 1 1 2 1 4 7 8 8 11 13 9 4 1 3 3 8 9 6 6 7 5 4 3 5 5 6 7 10 15 16 14 13 14 14 15 17 16 16 17 18 18 18 19 19 19 18 18 19 19 18 18 18 18 17 16 16 18 20 21 21 20 18 17 15 14 13 12 11 11 10 10 9 9 9 10 10 11 12 13 14
7 7 10 12 10 9 10 11 9 10 9 8 9 12 15 16 14 9 4 3 5 7 10 9 6 4 5 5 4 5 4 4 5 5 8 11 10 10 11 14 16 17 18 18 18 19 20 21 21 21 20 18 18 19 18 18 18 17 16 15 16 17 17 18 18 17 16 15 14 13 13 12 12 11 10 9 9 8 8 9 9 10 11 11 12 14
4 6 10 12 15 15 13 9 8 11 11 9 12 15 16 15 14 10 5 7 8 4 6 9 5 1 5 6 6 7 6 5 4 3 6 8 9 10 12 13 15 17 18 19 19 20 21 22 23 22 19 17 17 18 18 18 18 17 17 17 16 16 16 15 15 15 14 14 14 13 13 12 11 10 10 9 8 8 8 9 10 10 11 11 12 13
3 7 11 12 16 13 7 8 10 14 15 15 16 17 15 12 11 10 12 13 5 5 6 12 7 7 9 7 8 10 7 4 4 5 7 8 10 12 13 14 16 18 19 20 21 21 22 23 23 21 19 17 18 19 19 19 19 18 18 16 15 14 14 14 13 13 13 13 13 13 12 12 11 10 9 9 8 9 9 10 11 11 11 12 12 13
4 9 13 12 13 9 7 11 14 15 16 16 18 19 18 17 17 17 20 19 9 6 14 14 10 12 13 9 12 11 6 6 8 9 8 7 9 12 14 17 19 19 20 20 21 21 21 23 23 20 18 18 19 21 22 21 20 20 18 16 15 13 12 12 12 12 12 13 13 13 12 12 12 11 11 10 10 11 11 12 12 12 12 12 12 12
3 8 10 12 12 8 9 12 14 15 14 13 16 19 19 20 22 22 23 22 14 11 18 14 10 15 14 11 12 11 9 13 13 10 8 6 8 11 14 17 18 18 19 19 19 20 21 23 21 19 18 20 23 24 23 22 20 18 17 15 13 12 11 11 11 11 12 13 13 14 14 14 13 13 12 12 12 12 12 12 12 12 12 12 12 12
5 7 10 11 9 6 8 11 14 17 15 14 16 17 17 18 19 19 19 17 12 13 22 19 15 16 11 9 12 16 21 23 17 13 13 14 18 20 18 19 18 18 20 20 20 21 22 23 21 20 21 24 26 25 23 22 20 17 16 15 14 13 13 13 13 13 14 14 15 15 16 15 15 14 13 13 13 13 12 12 13 12 12 12 12 12
6 6 7 9 7 6 8 11 14 16 13 13 15 16 17 17 17 18 19 18 16 18 22 19 16 17 8 8 12 17 21 21 20 22 24 26 29 28 24 25 26 25 26 26 25 25 25 25 24 23 26 28 28 26 24 22 21 19 17 15 15 15 14 15 16 16 16 16 17 18 17 17 16 15 15 14 14 13 13 13 13 13 12 12 12 11
6 7 6 8 8 8 9 11 13 11 8 10 15 19 22 22 21 21 20 20 18 16 15 15 17 14 6 9 11 12 13 16 21 28 33 35 36 34 33 35 36 37 37 34 31 29 27 27 27 26 29 31 30 29 26 24 22 19 16 16 16 16 16 16 17 17 18 19 19 20 19 18 18 17 17 15 14 14 14 14 14 14 13 13 12 11
8 9 7 8 8 6 8 10 9 8 10 12 14 21 25 24 23 21 19 19 17 15 15 16 16 9 6 9 13 10 12 19 26 33 37 38 38 37 38 39 38 39 40 37 35 32 29 29 29 29 32 34 33 30 27 25 22 19 17 18 18 18 18 18 19 20 20 21 22 22 21 21 21 19 18 16 15 16 16 15 15 15 14 13 12 11
11 10 7 6 4 4 9 10 8 10 13 11 9 15 18 17 18 19 20 21 20 21 21 21 21 13 7 10 15 15 20 26 30 36 40 41 40 38 38 39 36 37 38 37 37 36 33 32 32 34 36 36 34 32 29 27 25 22 21 21 21 22 22 22 22 22 22 23 24 25 24 23 22 21 19 18 17 17 17 17 16 16 14 13 12 11
13 10 6 5 4 4 8 9 8 7 5 3 5 10 12 12 16 17 19 22 23 22 19 20 23 17 11 17 19 16 19 22 24 35 41 40 39 39 39 38 35 35 35 35 38 40 36 35 37 39 40 39 36 35 34 31 27 25 24 24 24 25 24 24 24 24 24 25 26 27 26 25 24 23 21 19 18 18 18 18 17 16 14 13 12 11
11 11 7 6 5 4 7 9 6 1 1 2 6 11 16 18 18 17 15 17 16 15 15 18 22 20 21 24 17 10 11 11 13 29 40 38 37 38 38 37 36 36 35 35 38 41 39 38 39 41 42 40 39 39 36 32 29 27 27 26 26 27 28 27 25 26 26 27 27 28 28 27 26 24 22 21 20 19 19 18 17 15 14 13 12 11
6 10 9 9 6 5 7 8 6 5 7 10 12 15 17 14 12 10 8 10 9 15 22 23 22 22 23 18 10 7 5 6 11 23 27 29 33 36 35 37 38 38 36 36 38 42 41 40 39 41 42 42 42 40 36 33 31 30 29 28 28 31 33 30 26 27 29 28 28 29 29 29 27 26 24 23 21 20 19 18 17 15 14 13 12 11
2 4 7 8 6 6 8 8 8 9 11 11 11 9 11 18 20 15 5 12 11 19 28 26 23 24 20 13 13 12 6 9 14 11 8 15 28 35 38 43 45 42 40 39 40 43 44 41 40 40 41 43 42 39 37 35 33 32 31 30 30 33 35 31 28 29 30 29 28 29 29 30 29 27 26 24 22 21 19 18 17 16 15 14 13 12
3 1 5 7 7 7 9 7 5 6 8 6 10 12 20 30 26 14 7 15 9 18 30 29 25 24 20 17 17 13 9 15 18 12 12 22 33 36 40 47 47 46 47 46 44 45 45 44 43 42 42 43 43 41 40 39 36 33 32 31 32 34 35 31 29 31 31 30 29 29 30 31 31 29 27 24 22 21 20 19 18 17 16 15 14 13
2 1 2 6 6 8 11 7 2 4 6 4 11 20 31 30 18 10 13 11 8 21 33 33 28 29 29 26 22 17 22 36 42 37 31 29 30 34 42 44 43 43 45 45 46 47 47 48 48 45 44 43 43 43 42 40 38 36 34 35 35 35 34 32 32 33 33 32 30 30 32 33 31 29 26 24 23 22 20 20 19 18 18 17 15 14
3 1 1 4 4 5 7 5 2 4 5 7 16 27 31 20 9 11 9 4 10 18 28 34 34 35 34 32 30 31 40 51 55 49 38 30 31 38 43 41 39 39 40 41 43 46 49 51 51 49 46 43 43 44 42 41 40 39 38 40 39 37 35 35 35 34 33 33 32 33 34 33 31 28 26 25 24 23 22 22 21 20 19 18 16 15
4 4 3 3 3 3 2 5 5 5 3 16 22 18 15 9 7 6 5 5 7 11 18 28 33 32 30 30 35 40 45 49 49 47 43 39 40 43 45 44 41 39 38 39 40 43 46 49 51 51 48 45 43 44 43 43 42 42 43 44 42 39 38 38 36 35 34 35 35 35 35 33 30 28 27 26 25 24 24 24 23 22 21 19 17 15
2 3 3 2 3 4 4 6 5 4 5 22 21 9 9 7 3 5 8 8 8 9 12 20 24 22 21 25 29 33 39 43 43 42 42 42 42 45 48 47 45 43 42 40 39 40 42 45 48 49 49 48 46 46 46 46 46 46 47 46 43 41 40 39 37 36 35 36 37 37 35 32 30 29 27 26 26 26 26 25 24 23 21 19 17 16
1 3 4 1 3 3 3 4 2 4 4 14 10 5 13 12 1 2 10 11 11 12 12 14 16 16 17 22 26 29 32 34 34 34 36 37 39 41 42 43 43 44 44 42 41 40 40 42 43 44 46 47 46 46 46 46 47 48 46 44 43 42 41 39 39 38 37 38 39 38 35 32 30 29 28 28 28 29 28 27 25 24 22 20 18 16
1 3 3 2 1 2 5 10 10 5 6 9 1 5 10 13 6 6 8 9 11 14 15 14 15 16 18 20 23 25 25 27 29 31 32 34 35 36 38 39 38 38 40 42 42 40 41 42 42 42 43 43 43 43 44 46 46 45 43 43 42 41 40 40 40 39 38 40 40 38 35 33 31 30 30 31 31 30 29 27 26 24 22 20 19 17
1 4 3 1 2 3 4 8 8 5 8 14 12 6 4 7 6 7 9 9 10 12 14 16 18 19 19 19 21 24 25 27 29 30 29 29 30 31 32 34 34 34 37 39 39 38 39 40 41 42 42 41 42 43 44 45 44 42 41 42 41 39 39 40 40 40 40 41 39 37 34 33 33 33 33 34 33 32 30 28 26 24 22 21 20 19
3 5 4 2 4 5 3 4 4 2 7 14 17 16 15 13 11 10 10 11 13 14 16 18 19 19 19 19 20 22 24 25 25 27 27 26 26 27 28 30 31 31 30 32 33 33 32 32 33 35 36 36 37 38 39 40 39 38 39 40 39 38 39 40 40 40 40 39 37 36 35 34 34 35 36 36 34 32 31 28 27 25 23 21 20 20
3 4 4 3 4 6 7 7 5 4 7 11 14 16 19 21 21 20 18 18 20 21 21 21 22 22 23 23 23 23 24 24 25 29 31 28 24 24 25 26 26 25 23 22 22 22 23 24 26 28 30 32 32 33 34 35 36 36 38 38 37 38 39 39 39 38 38 38 36 36 35 36 37 37 37 36 34 32 29 27 26 25 23 22 22 22
3 4 3 2 3 6 5 3 4 2 5 9 12 14 17 19 22 25 27 27 28 29 28 28 28 28 28 28 28 28 28 28 28 31 35 32 26 22 22 22 21 18 16 14 15 16 19 21 23 27 31 33 34 35 36 36 36 37 38 37 37 38 38 38 38 38 38 37 36 36 37 38 39 38 36 34 33 31 29 28 27 26 24 23 23 22
5 6 6 4 5 10 5 6 7 8 8 8 10 12 14 16 19 24 27 28 29 30 31 33 35 35 34 34 33 34 35 35 33 34 37 35 30 25 23 21 18 15 14 15 17 19 20 22 24 27 29 32 35 36 37 37 37 38 38 37 36 37 38 38 39 39 38 38 37 37 38 39 39 37 35 33 31 31 31 30 29 27 25 24 23 22
Wind_Direction
164 157 192 193 183 180 180 188 192 164 180 189 173 175 180 184 234 226 235 234 174 169 223 223 233 249 252 254 260 262 262 262 256 248 241 235 231 227 225 227 229 232 235 235 234 232 230 228 226 225 224 223 223 224 228 230 231 233 233 234 234 234 235 233 231 229 228 229 230 232 234 236 238 239 239 239 241 243 246 247 246 245 246 248 248 248
172 193 205 190 174 173 181 190 179 158 183 192 169 175 195 198 230 228 231 237 180 180 249 245 248 256 256 260 264 262 261 254 248 247 246 241 237 233 230 230 231 233 236 236 235 235 233 231 228 228 228 226 225 224 225 228 230 232 234 235 235 234 234 233 232 231 231 232 233 236 240 243 245 245 245 246 247 248 249 249 250 249 249 249 250 250
190 212 196 172 167 171 183 187 162 145 166 187 179 172 197 205 219 269 303 272 167 189 263 277 250 257 261 263 261 254 246 247 247 245 245 243 239 236 234 233 233 233 233 232 234 234 232 231 229 229 230 229 229 229 228 229 231 232 234 236 236 235 235 235 234 234 235 236 238 241 245 247 248 249 250 251 251 250 251 251 252 252 252 252 252 252
202 212 176 160 165 170 181 187 166 142 158 181 179 168 199 196 171 235 278 209 150 175 238 303 290 272 264 264 258 248 243 247 250 247 247 245 241 240 238 238 238 236 235 232 231 233 231 230 230 230 230 229 230 231 230 230 230 232 233 235 236 236 237 237 237 238 239 241 243 244 246 248 249 251 251 251 250 249 249 250 250 252 253 254 255 255
200 156 155 157 167 171 176 185 179 164 170 194 185 178 197 188 179 187 151 120 17 327 356 18 318 287 255 254 257 249 244 245 246 245 246 245 243 243 241 240 241 239 239 237 233 231 230 229 230 230 229 229 230 231 231 230 230 230 232 234 236 238 240 241 241 241 241 241 242 243 245 246 247 248 248 247 248 248 248 250 250 251 252 254 257 258
180 145 155 160 171 176 179 188 186 173 173 210 214 197 184 177 172 139 124 97 50 305 307 37 298 287 287 263 262 267 262 250 245 238 240 243 243 243 241 240 240 239 239 240 238 234 231 229 230 231 230 229 230 231 231 233 233 232 234 235 237 239 240 242 243 242 241 241 241 242 243 244 245 247 248 250 252 252 252 255 255 255 255 255 257 259
175 159 162 167 172 176 185 192 190 176 164 202 226 195 159 144 139 136 141 120 112 226 294 72 185 268 308 283 268 274 274 267 257 239 241 244 243 241 241 241 241 239 237 237 238 236 233 231 231 231 230 229 229 229 230 233 235 235 235 235 236 238 239 241 242 242 241 242 242 242 243 245 247 250 254 258 260 260 260 261 260 259 259 259 260 262
161 165 168 172 171 177 191 193 188 176 166 218 219 164 131 121 141 154 148 131 166 193 343 22 130 266 289 263 264 277 280 277 270 257 250 245 242 240 240 241 241 241 239 236 235 235 235 234 233 234 232 231 231 230 230 231 233 235 235 235 235 237 239 240 241 242 242 243 244 245 246 248 249 253 258 260 260 262 262 262 261 261 261 261 262 263
157 170 174 172 174 185 188 174 166 168 174 234 184 141 137 131 140 145 128 113 66 113 274 310 75 272 275 263 274 290 271 267 263 258 252 243 241 241 240 241 241 241 241 239 236 235 236 236 236 237 236 235 235 232 230 231 233 235 236 236 236 236 238 239 241 242 244 245 247 249 250 252 253 256 259 260 260 260 261 261 262 262 262 261 261 261
158 174 170 164 179 187 167 136 154 166 178 156 121 95 90 88 88 98 112 107 57 65 226 231 135 214 272 255 238 251 243 249 253 252 253 253 250 247 245 243 241 241 241 239 238 236 236 238 239 241 239 238 237 234 232 232 233 236 237 237 236 236 237 239 240 242 244 246 248 249 251 253 256 258 259 260 261 261 260 261 262 263 263 263 262 261
124 158 165 171 190 168 135 131 155 162 148 123 106 83 70 52 53 59 58 86 100 257 219 194 169 129 288 263 213 217 236 234 239 251 260 263 260 258 254 250 245 241 240 238 238 238 238 240 241 242 242 240 238 236 233 232 232 234 236 237 237 237 237 239 240 242 244 246 247 250 252 255 258 259 261 262 263 263 263 263 263 265 266 267 267 266
108 150 169 185 177 154 127 137 150 150 145 129 112 117 100 34 26 36 10 68 202 239 202 182 161 135 231 258 236 237 258 245 226 238 256 265 270 270 267 261 254 246 243 240 239 239 239 241 242 241 240 240 239 237 235 234 233 233 235 236 237 237 237 238 239 241 243 245 248 250 253 255 258 259 261 263 265 266 266 267 267 268 268 268 269 269
141 168 166 136 167 164 152 154 66 147 158 148 141 148 147 148 153 193 208 166 216 243 203 170 141 164 234 256 272 264 263 251 233 235 250 264 274 278 281 284 272 253 247 244 241 242 241 241 241 240 239 239 238 238 238 237 236 235 235 236 237 237 237 238 239 241 242 245 249 251 254 256 258 260 261 263 265 266 268 269 270 270 271 271 271 272
158 212 179 127 169 175 171 172 179 188 184 175 165 167 171 161 177 198 186 191 225 234 274 151 134 262 271 276 254 248 254 256 258 258 259 263 267 270 275 288 285 257 247 245 243 244 243 243 242 240 240 240 239 240 241 240 240 240 239 238 237 236 237 239 239 241 243 246 250 253 255 257 258 260 262 264 265 267 269 271 272 274 274 275 275 276
164 209 189 175 177 178 183 187 169 151 173 182 167 156 164 165 184 190 176 197 191 140 319 191 180 205 209 258 242 239 255 262 266 266 264 268 269 263 263 271 270 250 245 242 242 243 243 244 243 242 242 242 242 243 243 243 242 243 243 242 240 237 237 239 240 242 245 248 251 253 255 257 258 260 262 264 266 268 270 271 273 274 275 276 278 279
178 223 180 168 150 173 182 178 126 123 164 202 133 141 184 179 151 126 169 166 125 122 257 213 228 216 208 279 280 263 255 256 260 262 263 268 268 250 240 242 241 240 239 235 239 243 244 245 244 243 243 243 244 245 246 246 245 245 246 246 244 242 241 242 243 245 248 251 253 254 256 257 258 260 262 265 267 268 269 271 272 273 275 276 277 279
184 191 164 155 139 180 175 157 149 157 163 174 170 179 191 140 119 111 152 62 87 184 236 208 244 291 312 285 282 275 267 256 247 248 247 248 241 221 223 228 231 233 234 236 241 245 246 247 245 243 242 241 243 244 245 246 245 246 247 246 246 245 245 246 247 248 250 251 252 253 255 256 258 261 264 266 268 269 270 271 271 273 275 276 277 279
167 141 175 167 166 193 171 154 164 172 151 146 189 185 129 77 88 109 133 29 91 217 262 233 234 267 279 264 291 309 291 272 245 233 238 233 212 216 226 227 227 230 234 240 244 245 245 243 240 238 236 237 240 241 241 241 241 241 241 242 243 243 244 246 247 248 248 248 249 251 254 257 260 263 265 266 267 268 269 269 271 273 274 275 277 278
142 108 337 173 145 171 147 143 162 205 182 165 174 166 140 160 209 160 154 185 189 215 274 277 255 233 207 231 277 284 269 266 271 267 259 238 214 219 230 230 227 227 233 238 241 243 242 238 234 231 232 236 240 240 237 235 235 235 235 236 237 238 239 241 243 245 246 247 250 253 257 259 260 261 262 263 265 266 266 267 269 270 271 272 273 272
146 131 111 247 137 129 139 166 185 199 206 101 139 164 171 181 193 181 163 162 173 198 237 297 307 250 221 220 242 250 250 251 257 255 246 238 227 227 233 234 229 229 235 241 246 248 243 238 234 230 234 239 239 238 235 233 233 232 233 233 233 234 235 237 240 243 246 249 252 254 254 254 254 256 257 258 259 260 262 264 265 266 267 267 266 265
140 141 154 138 74 148 177 200 197 187 177 157 167 183 193 146 108 165 176 128 135 165 193 216 265 260 245 212 218 235 245 245 242 241 238 240 238 236 236 236 231 229 234 239 242 242 237 232 228 227 232 237 237 236 235 235 236 237 237 237 236 237 238 240 242 244 246 246 246 246 246 248 249 249 250 251 252 255 257 259 260 261 262 262 262 263
146 153 151 143 163 183 190 216 218 195 184 180 186 187 185 167 128 168 207 180 149 170 171 176 240 264 251 211 216 230 241 241 229 221 230 243 247 241 233 230 220 213 219 226 223 216 213 216 218 223 229 234 236 237 236 237 238 240 241 241 241 241 241 242 242 241 239 237 237 239 239 241 241 241 243 244 246 248 251 253 255 257 259 260 262 264
108 121 141 147 171 179 191 272 274 165 151 146 193 187 175 169 160 183 211 196 180 192 137 146 257 275 255 219 213 227 245 255 243 227 228 242 249 241 225 215 205 203 213 216 210 207 212 219 223 227 232 235 237 238 236 236 236 236 237 238 238 238 238 236 234 231 228 228 229 232 234 236 237 237 237 238 240 243 246 250 252 256 259 261 263 264
98 118 138 131 100 55 24 354 21 77 122 143 205 181 170 196 192 187 205 173 179 201 176 185 257 267 273 262 232 247 264 265 251 231 227 237 245 236 220 210 207 214 220 218 214 219 227 233 237 240 241 241 240 238 235 232 230 230 231 232 232 230 226 222 220 219 220 222 225 228 230 231 230 230 231 232 236 239 243 249 253 257 261 263 264 266
161 151 142 137 129 76 73 352 9 212 196 194 204 194 192 199 185 158 134 124 195 208 181 184 235 242 274 306 277 283 294 270 244 223 224 233 233 219 211 212 219 224 225 223 224 230 236 242 247 249 249 245 240 236 231 226 224 225 226 225 220 213 210 209 210 213 215 217 220 221 220 220 220 221 223 226 231 237 244 250 256 260 263 266 267 269
145 154 159 159 165 172 186 196 191 189 196 196 194 195 200 196 184 187 192 161 220 210 177 191 229 254 292 304 302 305 292 245 225 197 203 214 208 198 203 214 222 226 225 225 228 235 242 247 250 251 251 247 237 230 225 219 216 214 210 204 199 198 200 202 204 206 207 208 210 210 211 212 214 216 220 224 229 237 244 249 256 260 264 268 268 267
107 167 177 177 182 187 191 186 168 170 182 191 192 195 202 200 192 193 199 207 213 184 184 214 219 260 270 265 272 275 254 228 230 203 186 185 186 195 208 217 221 222 223 225 230 237 243 248 250 251 252 246 232 220 213 206 201 195 190 186 187 190 192 195 197 197 198 200 203 207 210 211 214 217 220 226 230 237 246 251 258 263 265 268 267 267
104 179 180 186 194 193 166 133 145 167 183 192 191 193 198 196 192 197 215 220 181 93 240 234 198 206 235 235 242 248 238 238 264 240 210 199 201 206 211 215 217 219 222 225 230 236 241 247 251 252 249 237 220 207 197 190 184 181 180 179 181 184 186 189 192 193 196 201 205 210 214 216 219 221 223 228 233 241 249 254 259 263 264 265 266 266
131 182 179 182 188 175 143 153 167 178 189 194 191 191 192 189 193 203 218 223 183 170 238 230 188 214 228 219 232 236 207 210 233 236 227 214 212 215 217 220 220 221 225 227 232 237 242 248 251 248 238 221 204 194 185 178 177 177 177 178 180 183 188 193 198 202 207 212 215 217 220 220 222 224 227 230 235 241 248 253 258 262 263 264 265 265
160 176 170 173 176 168 164 167 171 179 190 195 195 197 193 192 200 206 216 224 209 217 248 241 218 233 227 207 230 246 249 247 241 238 240 235 233 231 228 231 236 238 237 238 243 246 247 250 249 239 224 207 192 184 178 177 177 176 177 180 184 188 195 202 209 215 220 225 226 226 226 225 225 226 229 233 238 245 252 257 262 264 265 266 265 266
194 170 160 165 169 187 186 169 170 182 189 194 197 200 195 194 207 213 221 228 215 226 246 244 241 247 228 186 208 229 243 253 255 245 244 253 260 260 253 250 252 254 256 259 259 255 250 248 243 227 210 197 187 181 179 180 180 180 184 189 193 197 203 211 218 224 230 235 236 235 232 229 228 228 230 236 243 250 257 262 265 267 266 267 266 265
185 155 148 158 167 200 198 175 175 179 185 197 201 199 193 194 204 211 216 217 206 216 235 239 244 250 226 167 193 210 220 236 248 250 253 257 258 260 262 264 266 270 273 272 263 255 249 243 236 220 203 193 187 185 186 188 188 190 196 202 206 208 212 219 225 230 235 239 241 240 237 232 230 229 233 240 247 254 261 264 266 268 266 265 266 266
158 144 147 162 178 199 192 175 172 164 172 207 209 198 194 197 204 209 216 218 209 210 223 229 238 240 187 166 204 209 202 214 228 236 245 253 255 258 263 268 271 273 272 268 260 255 251 244 235 218 203 195 194 196 196 196 197 200 208 215 216 218 223 230 235 239 241 242 243 243 239 233 229 231 235 242 249 257 263 265 265 265 264 262 263 265
144 149 160 170 180 184 157 147 152 165 193 214 210 198 196 198 201 207 217 219 211 212 224 234 240 229 153 181 213 212 207 216 222 228 236 242 246 252 256 258 261 263 262 260 258 258 255 248 237 221 208 203 203 203 202 201 203 209 217 220 222 227 234 240 245 249 250 249 246 243 239 232 229 232 237 244 251 258 262 263 262 260 259 257 259 263
153 156 166 171 173 150 138 143 168 202 216 219 201 192 194 198 202 210 222 221 212 214 223 235 242 232 184 205 221 219 222 225 227 232 236 238 239 242 246 248 250 253 255 256 258 260 258 252 241 226 215 210 208 206 205 206 210 215 220 224 229 234 239 243 248 252 254 251 246 244 239 233 231 234 239 245 252 258 261 260 258 255 254 254 257 260
164 163 166 162 152 139 150 169 192 211 222 205 159 155 167 193 204 209 226 230 220 215 218 231 243 241 229 233 226 217 230 237 238 239 237 236 237 238 241 245 247 250 252 253 258 262 261 253 244 232 222 216 212 211 211 212 215 220 225 230 235 239 240 243 248 252 253 249 246 244 240 235 233 237 241 246 251 255 258 256 252 249 248 249 251 253
175 167 164 168 171 162 165 184 207 250 53 176 177 166 175 196 201 196 221 235 219 208 216 230 240 239 235 236 224 203 240 263 267 255 243 234 234 238 241 244 246 247 249 251 256 261 261 256 247 238 230 222 217 216 216 217 220 226 231 236 241 244 244 243 247 251 251 248 244 243 239 235 235 238 242 247 251 253 253 250 246 244 244 245 244 243
193 177 171 174 182 169 163 183 206 220 224 214 202 193 186 180 162 157 216 246 205 192 208 223 235 235 234 234 203 171 232 271 272 260 244 229 230 235 239 241 241 240 240 242 247 252 256 257 251 242 235 227 222 220 220 221 225 230 234 238 244 248 246 244 246 249 249 246 244 241 238 235 235 239 243 248 250 251 248 243 240 240 239 237 232 226
357 176 174 177 180 169 173 191 193 209 235 219 186 175 150 131 118 113 195 248 223 194 204 216 229 234 233 217 182 172 197 247 255 249 201 213 234 236 235 238 238 237 235 235 239 244 248 253 252 246 239 230 225 223 221 222 227 232 237 241 245 248 246 243 245 247 246 246 243 239 236 234 236 239 243 247 249 247 242 237 235 235 231 223 215 208
21 106 183 187 184 169 176 194 190 217 247 206 156 145 137 133 125 117 212 250 224 183 197 212 225 232 229 207 190 183 199 231 245 240 218 238 248 246 245 244 241 240 239 238 241 244 245 249 252 248 240 232 228 225 223 225 231 238 243 246 248 249 245 241 243 244 244 244 241 236 234 234 236 240 244 247 246 241 236 232 229 225 217 207 201 198
66 357 198 186 186 176 179 190 218 247 245 188 152 149 140 133 133 170 218 232 157 168 196 210 218 227 225 210 200 205 223 236 246 250 245 245 249 252 256 255 249 247 248 247 248 247 244 247 250 250 244 237 231 226 226 231 239 244 248 250 252 252 247 242 243 244 244 243 239 235 233 234 237 241 243 243 239 233 229 225 219 211 203 197 193 188
142 143 179 180 181 174 178 183 209 251 229 157 150 151 145 145 181 205 202 161 131 171 199 205 213 224 224 214 211 220 232 241 248 252 251 249 250 254 260 260 254 251 252 251 251 249 246 246 248 250 249 244 236 233 235 241 246 249 251 254 256 256 250 243 244 246 245 242 237 234 234 235 238 240 240 236 231 225 221 215 207 199 195 189 185 181
167 158 165 192 174 145 168 176 190 266 207 147 148 156 159 172 206 185 141 112 145 179 195 199 211 225 226 221 222 227 237 245 250 253 254 252 252 256 259 259 257 255 253 252 251 251 250 250 250 251 251 249 245 243 244 247 249 251 253 256 258 257 249 244 245 247 245 240 236 234 234 235 237 238 235 230 224 219 213 206 199 194 189 186 184 183
206 164 164 211 183 161 181 175 175 291 188 152 148 168 192 175 128 163 185 190 182 186 196 203 214 224 227 232 235 235 240 246 251 256 258 256 256 258 259 260 259 257 255 254 252 252 254 254 254 254 255 254 252 250 250 250 252 252 253 255 257 254 247 244 245 245 241 237 236 234 234 235 236 234 230 223 216 210 204 199 195 191 188 187 187 188
225 162 143 174 205 186 214 213 216 322 209 165 132 119 180 184 93 193 205 211 206 209 220 224 229 236 243 249 251 247 246 250 255 261 264 262 263 265 265 266 264 261 258 255 253 252 253 255 256 256 256 256 255 255 255 255 254 253 252 254 254 250 246 245 244 241 239 236 234 233 233 234 233 228 222 215 209 203 199 196 193 191 191 191 191 192
174 161 121 76 265 257 272 258 254 283 253 226 312 59 170 200 247 273 248 241 229 229 239 245 250 258 259 258 256 255 257 262 265 267 268 268 270 273 273 272 271 268 264 261 258 255 253 254 255 254 254 255 256 257 257 256 254 253 253 253 252 248 245 244 241 239 238 235 232 232 233 232 228 221 213 207 203 199 197 195 194 193 194 194 195 198
243 197 160 94 222 224 258 262 251 247 245 247 261 288 243 226 257 289 291 280 260 253 254 253 256 260 260 260 262 265 269 273 274 276 277 276 278 280 280 278 277 274 270 269 268 263 258 256 256 255 255 256 256 256 256 255 254 254 253 251 247 244 242 242 240 239 236 233 231 231 231 228 222 214 206 202 199 197 195 195 195 196 198 198 201 204
222 191 181 193 212 210 233 273 272 255 247 249 255 263 266 266 274 291 298 288 275 266 260 260 264 268 271 276 278 279 280 282 286 291 294 294 295 293 290 288 286 284 280 275 272 269 263 260 258 258 258 258 257 257 257 256 255 253 250 248 244 241 240 240 240 238 235 232 231 230 228 223 215 208 203 201 198 197 197 197 197 198 199 202 205 209
142 163 189 193 207 243 267 269 275 306 286 260 250 253 262 270 276 278 279 276 270 267 269 276 280 280 282 285 286 288 290 291 294 297 298 300 303 303 301 300 296 293 292 287 279 274 269 265 263 260 259 256 256 257 258 258 257 255 252 249 245 242 240 239 238 236 232 230 229 227 223 216 208 204 202 200 198 197 198 199 199 200 202 205 208 212
129 170 198 151 197 251 260 207 187 242 270 252 241 242 252 262 267 267 267 268 269 273 278 282 280 279 280 283 286 289 291 290 290 290 292 297 302 305 308 307 299 293 294 295 290 282 275 270 265 262 259 257 256 256 256 256 256 255 253 250 245 243 240 238 235 233 230 228 226 222 217 209 204 202 202 200 199 198 198 199 200 202 204 207 211 214
213 208 195 168 224 244 219 155 186 221 230 233 238 244 252 259 262 263 266 269 272 275 278 279 278 278 278 279 282 284 286 287 287 286 287 291 295 297 302 302 298 295 299 299 297 295 290 282 272 265 261 259 257 255 254 253 252 252 250 246 243 241 239 237 234 231 228 225 222 217 211 205 202 201 200 201 202 202 203 203 203 203 204 207 211 214